User: anonymous
Location: Shades State Park
(39.9310°N, 87.0690°W)
Time: 13:27:12
(UTC-04:00)
Language:

H-2A R/B - Orbit

View from above orbital plane
View from above orbital plane
View from above satellite
View from above satellite

Ground track
Ground track

The orbit data is extracted from the following two-line orbital elements,

1 27601U 02056E   14108.90808815  .00000455  00000-0  18229-3 0   655
2 27601 098.4827 192.9338 0073748 114.3138 015.4991 14.31344281592513
Epoch (UTC): 18 April 2014 21:47:38
Eccentricity: 0.0073748
inclination: 98.4827°
perigee height: 734 km
apogee height: 840 km
right ascension of ascending node: 192.9338°
argument of perigee: 114.3138°
revolutions per day: 14.31344281
mean anomaly at epoch: 15.4991°
orbit number at epoch: 59251

The dashed part of the orbit path shows where the satellite is in the earth's shadow,  

DLR